COSMOS 1275 DEB, 12743

Orbit data source: Space-Track

COSMOS 1275 DEB, 12743 is space debris in LEO originally from a launch on Thu, 04 Jun 1981 UTC launched from the Plesetsk Missile And Space Complex (PKMTR). Debris objects in space refer to the collection of defunct objects orbiting the Earth. Examples of debris include non-operational satellites, rocket bodies, and fragments generated from explosions, collisions, or faulty payload assembly.

Loading next visibility...
Identifier
12743, 1981-053CL
Orbit
LEO
Country
Flag of CISCIS
Related business
Manufacturer
Unknown
Mission
Spacecraft
Bus & Motor
Unknown
Mass
Unknown
Launch date (UTC)
1981-06-04 (45 years ago)
Launch vehicle
Unknown
Launch site
Plesetsk Missile And Space Complex (PKMTR)
Object type
Payload
Rocket body
Debris
Shape & HBR
Unknown shape, 0.2 m
Radar Cross Section
Medium (>0.1 m² and <1 m²)

Expand to show TLE details & history
Last TLE update: 9 hours ago

TLE from 9 hours ago
0 COSMOS 1275 DEB
1 12743U 81053CL  26119.86657889  .00000510  00000-0  46738-3 0  9997
2 12743  82.9227 248.3628 0061906 314.6385 161.7378 13.80379866244604
Epoch: 2026-04-29T20:47Z
TLE epoch observation values (Epoch: 2026-04-29T20:47:52.416Z)
Latitude
62.6332°
Longitude
-115.23202°
Altitude
1,016.483 km
Speed
7.328 km/s
True Right ascension
03h 38m 13s
True Declination
62° 29' 51"
Sunlit
Object was in daylight at epoch
Visualization orbit readout
Latitude
Unknown
Longitude
Unknown
Altitude
Unknown
Speed
Unknown
Apparent Right ascension
Unknown
Apparent Declination
Unknown
Sunlit
N/A
Visualization observer readout
Local Sidereal Time
13:10:34
Azimuth
Unknown
Elevation
Unknown
Doppler factor
Unknown
Orbital elements
Apogee altitude
1,005.107 km
Perigee altitude
914.256 km
Semi-major axis
7,337.819 km
Eccentricity
0.00619
Inclination
82.9227°
RAAN
248.3628°
Arg. of periapsis
314.6385°
True anomaly
161.95848°
Mean anomaly
161.7378°
Eccentric anomaly
161.8483°
Mean motion
3.45297 °/min
Orbital period
104.26 mins
BSTAR
0.00046738
Loading maneuver chart data...
Computing Atmospheric mass density...
Loading historical data...
Loading historical data...
Loading historical data...
Loading historical data...
Loading historical data...
Loading historical data...
Loading historical data...

Documentation

Showing up to 5 results
|